Regional Weather Roundup
Issued by NWS Kansas City/Pleasant Hill, MO

Home | Current Version | Previous Version | Graphics & Text | Print | Product List | Glossary Off
Versions: 1 2 3 4 5 6 7 8 9 10 11 12 13 14 15 16 17 18 19 20 21 22 23 24 25 26 27 28 29 30 31 32 33 34 35 36 37 38 39 40 41 42 43 44 45 46 47 48 49 50

064
ASUS43 KEAX 280810
RWREAX

WEATHER ROUNDUP FOR EASTERN KANSAS AND NORTHWEST MISSOURI
NATIONAL WEATHER SERVICE KANSAS CITY/PLEASANT HILL MO
300 AM CDT SAT MAY 28 2016

KSZ040-057-103>105-MOZ028-029-037-043-280900-
...KANSAS CITY METROPOLITAN AREA...

CITY           SKY/WX    TMP DP  RH WIND       PRES   REMARKS
K.C. INTL      PTCLDY    57  56  96 S5        29.75R
K.C. DOWNTOWN  MOCLDY    61  58  90 CALM      29.74R
LEES SUMMIT    CLOUDY    59  57  93 S6        29.76R
OLATHE - IXD   PTCLDY    59  58  96 SE7       29.75F
OLATHE - OJC   PTCLDY    57  56  96 SE6       29.75F
LAWRENCE         N/A     58  57  97 MISG      29.75R

$$

MOZ001>008-011>017-020>025-030>033-038>040-044>046-053-054-280900-
...NORTHERN AND CENTRAL MISSOURI...

CITY           SKY/WX    TMP DP  RH WIND       PRES   REMARKS
ST. JOSEPH     PTCLDY    59  57  93 S6        29.73F
MOSBY          CLOUDY    59  59 100 CALM      29.74S
WARRENSBURG    CLOUDY    59  55  88 CALM      29.75S
WHITEMAN AFB   MOCLDY    60  60 100 SE10      29.73F
CLINTON        PTCLDY    59  59 100 SE8       29.77F
SEDALIA        CLOUDY    62  59  90 SE7       29.79F
WARSAW         NOT AVBL
CHILLICOTHE      N/A     61  60  97 S3        29.75R
KIRKSVILLE     CLOUDY    65  64  97 CALM      29.77R

$$

MOZ041-047>049-056>058-063>065-088>090-097-280900-
...EASTERN AND SOUTHERN MISSOURI...

CITY           SKY/WX    TMP DP  RH WIND       PRES   REMARKS
ST. LOUIS INTL PTCLDY    70  65  84 S8        29.85R
SPIRIT OF STL  PTCLDY    69  66  90 S7        29.83R
COLUMBIA       CLOUDY    68  66  93 S13       29.79F
JEFFERSON CITY CLOUDY    68  66  93 SE7       29.80F
ROLLA          CLOUDY    64  63  96 S7        29.83R
SPRINGFIELD    CLOUDY    66  61  84 SE9       29.82S
JOPLIN         CLOUDY    63  61  93 SE7       29.79F
WEST PLAINS    MOCLDY    67  63  87 S10       29.88R

$$

IAZ060-094-KSZ022-034>040-054-083-096-NEZ052-066-093-280900-
...KANSAS...SOUTHEAST NEBRASKA AND IOWA...

CITY           SKY/WX    TMP DP  RH WIND       PRES   REMARKS
TOPEKA         MOCLDY    60  58  92 CALM      29.74S
MANHATTAN      CLOUDY    60  57  89 NW3       29.72F
EMPORIA        MOCLDY    60  57  89 CALM      29.73S
CHANUTE        CLEAR     60  58  92 SE9       29.75S
WICHITA        PTCLDY    62  57  83 SW12      29.70R
OMAHA          CLOUDY    62  59  90 SE8       29.69F
LINCOLN        CLOUDY    59  57  93 SW3       29.73R
FALLS CITY     PTCLDY    60  59  96 S6        29.72R
LAMONI         LGT RAIN  63  62  97 NE12      29.73S FOG
DES MOINES     CLOUDY    64  60  87 S6        29.72F

$$





USA.gov is the U.S. government's official web portal to all federal, state and local government web resources and services.